Location: Oberkirch
(48.5323°N, 8.0787°E)
Time: 16:49:11
(UTC+00:00)

SR - Pass Details

Date: 19 February 2026
Orbit: 572 x 848 km, 66.7° (Epoch: 8 March)

Event Time Altitude Azimuth Distance (km) Brightness Sun altitude
Exits shadow 05:23:11 16° 279° (W) 1,560 ? -11.4°
Maximum altitude 05:25:29 25° 322° (NW) 1,257 ? -11.1°
Drops below altitude 10° 05:29:14 10° 18° (NNE) 2,031 ? -10.4°
Sets 05:31:59 0° 31° (NNE) 2,994 ? -10.0°
